Location: Unspecified
(0.0000°N, 0.0000°E)
Time: 15:20:58
(UTC+00:00)

Explorer 7 - All Passes

Search period start: 27 July 2016 00:00
Search period end: 06 August 2016 00:00
Orbit: 486 x 687 km, 50.3° (Epoch: 27 July)

Date Brightness Start Highest point End Pass type
(mag) Time Alt. Az. Time Alt. Az. Time Alt. Az.
27 Jul - 09:42:36 10° N 09:45:59 24° NE 09:49:15 10° ESE daylight
27 Jul - 11:23:46 10° W 11:26:22 17° SW 11:28:55 10° SSW daylight
27 Jul - 21:44:14 10° SSW 21:48:28 39° SE 21:52:54 10° ENE night (unlit)
27 Jul - 23:26:17 10° W 23:29:03 15° NW 23:31:54 10° NNW night (unlit)
28 Jul - 09:48:14 10° NNW 09:52:20 55° NE 09:56:13 10° SE daylight
28 Jul - 21:50:14 10° SW 21:54:45 86° SE 21:59:31 10° NE night (unlit)
29 Jul - 09:54:32 10° NW 09:58:39 60° SW 10:02:31 10° SSE daylight
29 Jul - 20:18:34 10° SSE 20:20:37 13° SE 20:22:42 10° E night (unlit)
29 Jul - 21:56:46 10° SW 22:01:04 43° NW 22:05:35 10° NNE night (unlit)
30 Jul - 08:21:37 10° N 08:24:27 17° NE 08:27:10 10° E daylight
30 Jul - 10:01:26 10° WNW 10:04:54 25° SW 10:08:14 10° S daylight
30 Jul - 20:23:12 10° S 20:26:54 26° SE 20:30:47 10° ENE night (unlit)
30 Jul - 22:03:58 10° WSW 22:07:25 21° NW 22:11:01 10° N night (unlit)
31 Jul - 08:26:50 10° NNW 08:30:50 36° NE 08:34:35 10° ESE daylight
31 Jul - 10:09:40 10° WSW 10:11:11 12° SW 10:12:41 10° SSW daylight
31 Jul - 20:28:53 10° SSW 20:33:10 57° SE 20:37:44 10° NE night (unlit)
31 Jul - 22:13:13 10° WNW 22:13:51 10° NW 22:14:29 10° NW night (unlit)
01 Aug - 08:32:49 10° NW 08:37:09 87° ENE 08:41:12 10° SE daylight
01 Aug - 20:35:08 10° SW 20:39:28 64° NW 20:44:04 10° NNE night (unlit)
02 Aug - 07:01:03 10° NNE 07:02:51 12° NE 07:04:36 10° ENE daylight
02 Aug - 08:39:23 10° WNW 08:43:25 39° SW 08:47:13 10° SSE daylight
02 Aug - 19:02:27 10° S 19:05:21 18° SE 19:08:22 10° E visible
02 Aug - 20:41:57 10° WSW 20:45:48 29° NW 20:49:51 10° N visible
03 Aug - 07:05:34 10° N 07:09:15 26° NE 07:12:46 10° ESE daylight
03 Aug - 08:46:42 10° W 08:49:40 18° SW 08:52:32 10° S daylight
03 Aug - 19:07:41 10° SSW 19:11:37 37° SE 19:15:47 10° ENE visible
03 Aug - 20:49:44 10° W 20:52:12 15° NW 20:54:43 10° NNW visible
04 Aug - 07:11:13 10° NNW 07:15:36 57° NE 07:19:43 10° SE daylight
04 Aug - 19:13:39 10° SW 19:17:53 84° SE 19:22:25 10° NE visible
05 Aug - 07:17:29 10° NW 07:21:53 62° SW 07:26:01 10° SSE daylight
05 Aug - 17:42:25 10° SE 17:43:48 11° SE 17:45:13 10° ESE daylight
05 Aug - 19:20:10 10° SW 19:24:11 42° NW 19:28:28 10° NNE visible
